History for DABS

Tebessa, Algeria

Daily Weekly Monthly
Daily Summary for Thursday, July 28, 2016
  Actual: Average: Record:
Temperature
Mean Temperature: 77 °F / 25 °C - :  
Max Temperature: 95 °F / 35 °C 92 °F / 33 °C - ()
Min Temperature: 59 °F / 15 °C 62 °F / 16 °C - ()
Cooling Degree Days 12    
Growing Degree Days 27 (Base 50)    
Moisture
Dew Point 49 °F / 10 °C    
Average Humidity 37    
Maximum Humidity 77    
Minimum Humidity 9    
Precipitation
Precipitation 0.00 in / 0.0 cm 0.03 in / 0.8 cm - ()
Sea Level Pressure
Sea Level Pressure 30.15 in / 1020.94 hPa   
Wind
Wind Speed 4 mph / 7 km/h ()  
Max Wind Speed 16 mph / 26 km/h   
Max Gust Speed -   
Visibility 8.3 miles / 13.3 kilometers   
Events     

Key: T is trace of precipitation, MM is missing value
Source: Averaged Metar Reports

Graphs

Observations

History Graphs Observations

Obs Go Here...

Features

Weather Apps

WunderRadio

Weather Underground Apps
Check out our wide variety of mobile and setup applications.

Weather Underground Applications

Top of Page

© Copyright 2016
The Weather Company, LLC
Time(CET)TemperatureDew PointHumidity Sea Level Pressure Visibility Wind DirectionWind SpeedGust SpeedPrecipitationEvents Conditions
12:00 AM 73.4 °F / 23.0 °C 53.6 °F / 12.0 °C 50% 30.18 in / 1022 hPa - SE 6.9 mph / 11.1 km/h - N/A   Clear
12:30 AM 71.6 °F / 22.0 °C 53.6 °F / 12.0 °C 53% 30.18 in / 1022 hPa - SE 4.6 mph / 7.4 km/h - N/A   Clear
1:00 AM 71 °F / 21 °C 54 °F / 12 °C 44%  in /  hPa 6 miles / 10 kilometers Calm Calm - -   Clear
1:00 AM 69.8 °F / 21.0 °C 53.6 °F / 12.0 °C 56% 30.18 in / 1022 hPa - Calm Calm - N/A   Clear
1:30 AM 69.8 °F / 21.0 °C 53.6 °F / 12.0 °C 56% 30.18 in / 1022 hPa - Calm Calm - N/A   Clear
2:00 AM 68.0 °F / 20.0 °C 53.6 °F / 12.0 °C 60% 30.18 in / 1022 hPa - Calm Calm - N/A   Clear
2:30 AM 68.0 °F / 20.0 °C 53.6 °F / 12.0 °C 60% 30.18 in / 1022 hPa - ESE 2.3 mph / 3.7 km/h - N/A   Clear
3:00 AM 68.0 °F / 20.0 °C 53.6 °F / 12.0 °C 60% 30.15 in / 1021 hPa - East 2.3 mph / 3.7 km/h - N/A   Clear
3:30 AM 68.0 °F / 20.0 °C 53.6 °F / 12.0 °C 60% 30.15 in / 1021 hPa - Calm Calm - N/A   Clear
4:00 AM 67 °F / 19 °C 53 °F / 12 °C 52%  in /  hPa 6 miles / 10 kilometers East 4.6 mph / 7.4 km/h - -  
4:00 AM 66.2 °F / 19.0 °C 53.6 °F / 12.0 °C 64% 30.15 in / 1021 hPa - East 4.6 mph / 7.4 km/h - N/A   Clear
4:30 AM 66.2 °F / 19.0 °C 53.6 °F / 12.0 °C 64% 30.15 in / 1021 hPa - Calm Calm - N/A   Clear
5:00 AM 64.4 °F / 18.0 °C 53.6 °F / 12.0 °C 68% 30.15 in / 1021 hPa - Calm Calm - N/A   Clear
5:30 AM 62.6 °F / 17.0 °C 53.6 °F / 12.0 °C 72% 30.15 in / 1021 hPa - Calm Calm - N/A   Clear
6:00 AM 62.6 °F / 17.0 °C 53.6 °F / 12.0 °C 72% 30.15 in / 1021 hPa - Calm Calm - N/A   Clear
6:30 AM 60.8 °F / 16.0 °C 53.6 °F / 12.0 °C 77% 30.15 in / 1021 hPa - Calm Calm - N/A   Clear
7:00 AM 63 °F / 17 °C 52 °F / 11 °C 58%  in /  hPa 12 miles / 20 kilometers SE 4.6 mph / 7.4 km/h - -  
7:00 AM 62.6 °F / 17.0 °C 51.8 °F / 11.0 °C 68% 30.18 in / 1022 hPa - SE 4.6 mph / 7.4 km/h - N/A   Clear
7:30 AM 64.4 °F / 18.0 °C 51.8 °F / 11.0 °C 64% 30.18 in / 1022 hPa - SE 2.3 mph / 3.7 km/h - N/A   Clear
8:00 AM 69.8 °F / 21.0 °C 51.8 °F / 11.0 °C 53% 30.18 in / 1022 hPa - SE 6.9 mph / 11.1 km/h - N/A   Clear
8:30 AM 73.4 °F / 23.0 °C 51.8 °F / 11.0 °C 47% 30.18 in / 1022 hPa - Calm Calm - N/A   Clear
9:00 AM 78.8 °F / 26.0 °C 59.0 °F / 15.0 °C 51% 30.18 in / 1022 hPa - Calm Calm - N/A   Clear
9:30 AM 80.6 °F / 27.0 °C 59.0 °F / 15.0 °C 48% 30.18 in / 1022 hPa - Calm Calm - N/A   Clear
10:00 AM 82 °F / 28 °C 51 °F / 10 °C 23%  in /  hPa 16 miles / 25 kilometers Calm Calm - -  
10:00 AM 82.4 °F / 28.0 °C 50.0 °F / 10.0 °C 32% 30.18 in / 1022 hPa - Calm Calm - N/A   Clear
10:30 AM 84.2 °F / 29.0 °C 50.0 °F / 10.0 °C 30% 30.18 in / 1022 hPa - NNW 2.3 mph / 3.7 km/h - N/A   Clear
11:00 AM 86.0 °F / 30.0 °C 51.8 °F / 11.0 °C 31% 30.18 in / 1022 hPa - Calm Calm - N/A   Clear
11:30 AM 87.8 °F / 31.0 °C 51.8 °F / 11.0 °C 29% 30.18 in / 1022 hPa - NNE 9.2 mph / 14.8 km/h - N/A   Clear
12:00 PM 89.6 °F / 32.0 °C 51.8 °F / 11.0 °C 27% 30.18 in / 1022 hPa - Calm Calm - N/A   Clear
12:30 PM 91.4 °F / 33.0 °C 51.8 °F / 11.0 °C 26% 30.18 in / 1022 hPa 6.2 miles / 10.0 kilometers NW 6.9 mph / 11.1 km/h - N/A   Partly Cloudy
1:00 PM 91 °F / 33 °C 48 °F / 9 °C 14%  in /  hPa 16 miles / 25 kilometers West 4.6 mph / 7.4 km/h - -   Scattered Clouds
1:00 PM 91.4 °F / 33.0 °C 48.2 °F / 9.0 °C 23% 30.15 in / 1021 hPa 6.2 miles / 10.0 kilometers West 4.6 mph / 7.4 km/h - N/A   Partly Cloudy
1:30 PM 93.2 °F / 34.0 °C 48.2 °F / 9.0 °C 21% 30.15 in / 1021 hPa 6.2 miles / 10.0 kilometers NNE 4.6 mph / 7.4 km/h - N/A   Partly Cloudy
2:00 PM 93.2 °F / 34.0 °C 48.2 °F / 9.0 °C 21% 30.15 in / 1021 hPa 6.2 miles / 10.0 kilometers NNE 9.2 mph / 14.8 km/h - N/A   Partly Cloudy
2:30 PM 93.2 °F / 34.0 °C 48.2 °F / 9.0 °C 21% 30.15 in / 1021 hPa 6.2 miles / 10.0 kilometers NNW 11.5 mph / 18.5 km/h - N/A   Partly Cloudy
3:00 PM 95.0 °F / 35.0 °C 46.4 °F / 8.0 °C 19% 30.12 in / 1020 hPa 6.2 miles / 10.0 kilometers NNW 4.6 mph / 7.4 km/h - N/A   Partly Cloudy
3:30 PM 95.0 °F / 35.0 °C 46.4 °F / 8.0 °C 19% 30.12 in / 1020 hPa 6.2 miles / 10.0 kilometers Calm Calm - N/A   Partly Cloudy
4:00 PM 95 °F / 35 °C 44 °F / 6 °C 9%  in /  hPa 16 miles / 25 kilometers North 4.6 mph / 7.4 km/h - -   Scattered Clouds
4:00 PM 95.0 °F / 35.0 °C 42.8 °F / 6.0 °C 16% 30.12 in / 1020 hPa 6.2 miles / 10.0 kilometers North 4.6 mph / 7.4 km/h - N/A   Partly Cloudy
4:30 PM 95.0 °F / 35.0 °C 42.8 °F / 6.0 °C 16% 30.12 in / 1020 hPa 6.2 miles / 10.0 kilometers WNW 16.1 mph / 25.9 km/h - N/A   Partly Cloudy
5:00 PM 95.0 °F / 35.0 °C 42.8 °F / 6.0 °C 16% 30.09 in / 1019 hPa 6.2 miles / 10.0 kilometers ENE 11.5 mph / 18.5 km/h - N/A   Partly Cloudy
5:30 PM 95.0 °F / 35.0 °C 42.8 °F / 6.0 °C 16% 30.09 in / 1019 hPa 6.2 miles / 10.0 kilometers ENE 11.5 mph / 18.5 km/h - N/A   Partly Cloudy
6:00 PM 95.0 °F / 35.0 °C 42.8 °F / 6.0 °C 16% 30.09 in / 1019 hPa 6.2 miles / 10.0 kilometers NE 11.5 mph / 18.5 km/h - N/A   Partly Cloudy
6:30 PM 93.2 °F / 34.0 °C 42.8 °F / 6.0 °C 17% 30.09 in / 1019 hPa 6.2 miles / 10.0 kilometers NE 9.2 mph / 14.8 km/h - N/A   Partly Cloudy
7:00 PM 90 °F / 32 °C 45 °F / 7 °C 13%  in /  hPa 12 miles / 20 kilometers ENE 11.5 mph / 18.5 km/h - -  
7:00 PM 89.6 °F / 32.0 °C 44.6 °F / 7.0 °C 21% 30.09 in / 1019 hPa - ENE 11.5 mph / 18.5 km/h - N/A   Clear
7:30 PM 87.8 °F / 31.0 °C 44.6 °F / 7.0 °C 22% 30.09 in / 1019 hPa - ENE 13.8 mph / 22.2 km/h - N/A   Clear
8:00 PM 87.8 °F / 31.0 °C 44.6 °F / 7.0 °C 22% 30.09 in / 1019 hPa - East 11.5 mph / 18.5 km/h - N/A   Clear
8:30 PM 86.0 °F / 30.0 °C 44.6 °F / 7.0 °C 23% 30.09 in / 1019 hPa - East 13.8 mph / 22.2 km/h - N/A   Clear
9:00 PM 84.2 °F / 29.0 °C 44.6 °F / 7.0 °C 25% 30.12 in / 1020 hPa - SE 13.8 mph / 22.2 km/h - N/A   Clear
9:30 PM 84.2 °F / 29.0 °C 44.6 °F / 7.0 °C 25% 30.15 in / 1021 hPa - SSE 13.8 mph / 22.2 km/h - N/A   Clear
10:00 PM 83 °F / 28 °C 46 °F / 8 °C 18%  in /  hPa 9 miles / 15 kilometers SE 9.2 mph / 14.8 km/h - -  
10:00 PM 82.4 °F / 28.0 °C 46.4 °F / 8.0 °C 28% 30.15 in / 1021 hPa - SE 9.2 mph / 14.8 km/h - N/A   Clear
10:30 PM 80.6 °F / 27.0 °C 46.4 °F / 8.0 °C 30% 30.15 in / 1021 hPa - SE 9.2 mph / 14.8 km/h - N/A   Clear
11:00 PM 78.8 °F / 26.0 °C 46.4 °F / 8.0 °C 32% 30.15 in / 1021 hPa - SE 13.8 mph / 22.2 km/h - N/A   Clear
11:30 PM 78.8 °F / 26.0 °C 46.4 °F / 8.0 °C 32% 30.15 in / 1021 hPa - SE 13.8 mph / 22.2 km/h - N/A   Clear